Regional Weather Roundup
Issued by NWS

Home | Current Version | Previous Version | Graphics & Text | Print | Product List | Glossary On
Versions: 1 2 3 4 5 6 7 8 9 10 11 12 13 14 15 16 17 18 19 20 21 22 23 24 25 26 27 28 29 30 31 32 33 34 35 36 37 38 39 40 41 42 43 44 45 46 47 48 49 50
000
ASUS43 KFSD 242102
RWRSD

WEATHER ROUNDUP FOR SOUTH DAKOTA
NATIONAL WEATHER SERVICE SIOUX FALLS SD
400 PM CDT MON JUL 24 2017

NOTE: "FAIR" INDICATES FEW OR NO CLOUDS BELOW 12,000 FEET WITH NO
SIGNIFICANT WEATHER AND/OR OBSTRUCTIONS TO VISIBILITY.


SDZ001>005-009-010-012>017-242200-
NORTHWEST AND NORTH CENTRAL SOUTH DAKOTA

CITY           SKY/WX    TMP DP  RH WIND       PRES   REMARKS
BUFFALO          N/A     96  54  24 SE7       29.76F
FAITH            N/A     93  57  29 SE8       29.80F
MOBRIDGE       FAIR      85  68  56 E17G26    29.80F
$$

SDZ012>016-024>037-041>051-057-063-072>074-242200-
SOUTHWEST AND SOUTH CENTRAL SOUTH DAKOTA

CITY           SKY/WX    TMP DP  RH WIND       PRES   REMARKS
RAPID CTY ARPT FAIR      97  50  20 NE10      29.83F
PIERRE         FAIR      97  61  30 E23       29.73F HX  97
CUSTER         FAIR      92  30  11 NW8G18    30.03S
ELLSWORTH AFB  FAIR      96  51  21 NE9G17    29.84S
PHILIP         FAIR     104  56  20 CALM      29.72F HX 103
PINE RIDGE     FAIR     102  39  11 W10G21    29.83F HX  97
SPEARFISH      LGT RAIN  95  52  23 NE9       29.90S
WINNER         FAIR     106  52  16 S20G33    29.78F HX 103
$$

SDZ004>011-016>023-039-040-242200-
NORTHEAST SOUTH DAKOTA

CITY           SKY/WX    TMP DP  RH WIND       PRES   REMARKS
ABERDEEN       LGT RAIN  73  67  81 E7        29.88R
WATERTOWN      FAIR      78  64  61 SE13G20   29.95S
BROOKINGS      FAIR      78  63  59 SE16      29.95F
SISSETON         N/A     81  64  56 SE15      29.92F
$$

SDZ017-020-022-023-036>040-048>070-242200-
SOUTHEAST SOUTH DAKOTA

CITY           SKY/WX    TMP DP  RH WIND       PRES   REMARKS
SIOUX FALLS    FAIR      83  65  54 SE17G25   29.94F
HURON          FAIR      84  65  52 SE17G29   29.88R
CHAMBERLAIN    FAIR      96  68  40 SE21G30   29.80F HX 100
MITCHELL       FAIR      88  65  46 SE23G31   29.87F
YANKTON        FAIR      87  66  49 SE17G23   29.91F
$$

ABBREVIATIONS USED IN REMARKS
   TC - TEMPERATURE IN CELSIUS
  WCI - WIND CHILL INDEX
   HX - HEAT INDEX
  VSB - VISIBILITY




USA.gov is the U.S. government's official web portal to all federal, state and local government web resources and services.